Regional Weather Roundup
Issued by NWS

Home | Current Version | Previous Version | Text Only | Print | Product List | Glossary Off
Versions: 1 2 3 4 5 6 7 8 9 10 11 12 13 14 15 16 17 18 19 20 21 22 23 24 25 26 27 28 29 30 31 32 33 34 35 36 37 38 39 40 41 42 43 44 45 46 47 48 49 50

000
ASUS43 KFSD 221510
RWRSD

WEATHER ROUNDUP FOR SOUTH DAKOTA
NATIONAL WEATHER SERVICE SIOUX FALLS SD
1000 AM CDT FRI SEP 22 2017

NOTE: "FAIR" INDICATES FEW OR NO CLOUDS BELOW 12,000 FEET WITH NO
SIGNIFICANT WEATHER AND/OR OBSTRUCTIONS TO VISIBILITY.


SDZ001>005-009-010-012>017-221600-
NORTHWEST AND NORTH CENTRAL SOUTH DAKOTA

CITY           SKY/WX    TMP DP  RH WIND       PRES   REMARKS
BUFFALO          N/A     51  36  56 N14       29.81R
FAITH            N/A     52  48  86 NE28      29.72R
MOBRIDGE       CLOUDY    63  56  78 NE17G25   29.62S
$$

SDZ012>016-024>037-041>051-057-063-072>074-221600-
SOUTHWEST AND SOUTH CENTRAL SOUTH DAKOTA

CITY           SKY/WX    TMP DP  RH WIND       PRES   REMARKS
RAPID CTY ARPT CLOUDY    52  39  62 N23G35    29.80R
PIERRE         MOSUNNY   59  56  89 SW17      29.62R
CUSTER         SUNNY     53  44  71 W6        29.83R
ELLSWORTH AFB  CLOUDY    53  40  62 N26G32    29.79S
PHILIP         LGT RAIN  58  49  72 NW13      29.70R
PINE RIDGE     CLOUDY    54  42  64 NW9       29.81R
SPEARFISH      CLOUDY    48  37  66 NW12      29.88R
WINNER         FAIR      62  51  67 W15       29.68R
$$

SDZ004>011-016>023-039-040-221600-
NORTHEAST SOUTH DAKOTA

CITY           SKY/WX    TMP DP  RH WIND       PRES   REMARKS
ABERDEEN       PTSUNNY   80  72  76 SE16G22   29.64F
WATERTOWN      SUNNY     76  73  91 S20       29.71S
BROOKINGS      MOSUNNY   78  71  79 S17       29.74R
SISSETON         N/A     74  73  97 SE7       29.70F
$$

SDZ017-020-022-023-036>040-048>070-221600-
SOUTHEAST SOUTH DAKOTA

CITY           SKY/WX    TMP DP  RH WIND       PRES   REMARKS
SIOUX FALLS    MOSUNNY   81  72  74 S20       29.73S
HURON          SUNNY     79  72  79 S18G29    29.64S
CHAMBERLAIN    MOSUNNY   73  62  70 SW14      29.64R
MITCHELL       SUNNY     82  71  69 S12       29.66S
$$

ABBREVIATIONS USED IN REMARKS
   TC - TEMPERATURE IN CELSIUS
  WCI - WIND CHILL INDEX
   HX - HEAT INDEX
  VSB - VISIBILITY





USA.gov is the U.S. government's official web portal to all federal, state and local government web resources and services.